Weather History for Little Falls, MN

Change the Weather History Date:

Wednesday, June 12, 2013

  Actual Average Record
Temperature  
Mean Temperature 63 °F -  
Max Temperature 71 °F 80 °F 94 °F (1988)
Min Temperature 55 °F 53 °F 39 °F (1962)
Degree Days  
Heating Degree Days 2    
Growing Degree Days 13 (Base 50)    
Moisture  
Dew Point 50 °F    
Average Humidity 62    
Maximum Humidity 88    
Minimum Humidity 43    
Precipitation  
Precipitation 0.03 in - - ()
Sea Level Pressure  
Sea Level Pressure 29.89 in    
Wind  
Wind Speed 2 mph (NNW)    
Max Wind Speed 9 mph    
Max Gust Speed -    
Visibility 10 miles    
Events Rain    
Averages and records for this station are not official NWS values.
T = Trace of Precipitation, MM = Missing Value Source: NWS Daily Summary

Daily Weather History Graph

Daily Weather History Graph

Search for Another Location

Airport:

Trip Planner

Search our weather history database for the weather conditions in past years. The results will help you decide how hot, cold, wet, or windy it might be!

Date:

Astronomy

Jun. 12, 2013 Rise Set
Actual Time 5:26 AM CDT 9:08 PM CDT
Civil Twilight 4:48 AM CDT 9:46 PM CDT
Nautical Twilight 3:56 AM CDT 10:38 PM CDT
Astronomical Twilight 2:46 AM CDT 11:49 PM CDT
Moon 9:15 AM CDT (6/12) 11:33 PM CDT (6/12)
Length of Visible Light 16h 58m
Length of Day
15h 42m
Waxing Crescent, 14% of the Moon is Illuminated
Jun 12
Waxing Crescent
Jun 16
First Quarter
Jun 23
Full
Jun 29
Last Quarter
Jul 8
New

Hourly Weather History & Observations

Time (CDT) Temp. Dew Point Humidity Pressure Visibility Wind Dir Wind Speed Gust Speed Precip Events Conditions
12:17 AM 59.0 °F 51.8 °F 77% 29.91 in 10.0 mi Calm Calm - N/A   Clear
12:36 AM 59.0 °F 51.8 °F 77% 29.89 in 10.0 mi Calm Calm - N/A   Clear
12:57 AM 60.8 °F 51.8 °F 72% 29.89 in 10.0 mi Calm Calm - N/A   Scattered Clouds
1:17 AM 59.0 °F 53.6 °F 82% 29.90 in 10.0 mi Calm Calm - 0.01 in   Mostly Cloudy
1:36 AM 60.8 °F 53.6 °F 77% 29.94 in 10.0 mi Calm Calm - 0.01 in   Mostly Cloudy
1:57 AM 60.8 °F 51.8 °F 72% 29.88 in 10.0 mi East 5.8 mph - N/A Rain Light Rain
2:17 AM 60.8 °F 50.0 °F 68% 29.86 in 10.0 mi Calm Calm - N/A   Clear
2:36 AM 60.8 °F 50.0 °F 68% 29.87 in 10.0 mi Calm Calm - N/A   Clear
2:57 AM 60.8 °F 46.4 °F 59% 29.87 in 10.0 mi Calm Calm - N/A   Scattered Clouds
3:16 AM 59.0 °F 50.0 °F 72% 29.87 in 10.0 mi Calm Calm - N/A   Scattered Clouds
3:37 AM 59.0 °F 50.0 °F 72% 29.88 in 10.0 mi Calm Calm - N/A   Scattered Clouds
3:56 AM 59.0 °F 50.0 °F 72% 29.87 in 10.0 mi Calm Calm - N/A   Scattered Clouds
4:17 AM 59.0 °F 50.0 °F 72% 29.87 in 10.0 mi Calm Calm - N/A   Scattered Clouds
4:36 AM 57.2 °F 50.0 °F 77% 29.88 in 10.0 mi Calm Calm - N/A   Scattered Clouds
4:56 AM 57.2 °F 50.0 °F 77% 29.88 in 10.0 mi Calm Calm - N/A   Scattered Clouds
5:17 AM 55.4 °F 50.0 °F 82% 29.87 in 10.0 mi Calm Calm - N/A   Clear
5:36 AM 55.4 °F 48.2 °F 77% 29.86 in 10.0 mi Calm Calm - N/A   Clear
5:56 AM 57.2 °F 48.2 °F 72% 29.86 in 10.0 mi Calm Calm - N/A   Scattered Clouds
6:17 AM 55.4 °F 50.0 °F 82% 29.87 in 10.0 mi Calm Calm - N/A   Scattered Clouds
6:36 AM 55.4 °F 51.8 °F 88% 29.86 in 10.0 mi Calm Calm - N/A   Scattered Clouds
6:56 AM 59.0 °F 48.2 °F 67% 29.88 in 10.0 mi Calm Calm - N/A   Scattered Clouds
7:17 AM 60.8 °F 50.0 °F 68% 29.88 in 10.0 mi NNW 3.5 mph - N/A   Scattered Clouds
7:36 AM 60.8 °F 50.0 °F 68% 29.87 in 10.0 mi Calm Calm - N/A   Clear
7:56 AM 60.8 °F 50.0 °F 68% 29.89 in 10.0 mi West 4.6 mph - N/A   Clear
8:17 AM 60.8 °F 50.0 °F 68% 29.92 in 10.0 mi West 4.6 mph - N/A   Scattered Clouds
8:36 AM 60.8 °F 50.0 °F 68% 29.92 in 10.0 mi WNW 4.6 mph - N/A   Scattered Clouds
8:56 AM 60.8 °F 50.0 °F 68% 29.91 in 10.0 mi Calm Calm - N/A   Clear
9:17 AM 62.6 °F 50.0 °F 63% 29.89 in 10.0 mi Calm Calm - N/A   Clear
9:36 AM 62.6 °F 51.8 °F 68% 29.88 in 10.0 mi Calm Calm - N/A   Clear
9:57 AM 62.6 °F 51.8 °F 68% 29.87 in 10.0 mi Calm Calm - N/A   Clear
10:16 AM 62.6 °F 51.8 °F 68% 29.87 in 10.0 mi Calm Calm - N/A   Clear
10:36 AM 62.6 °F 51.8 °F 68% 29.86 in 10.0 mi NE 4.6 mph - N/A   Clear
10:57 AM 62.6 °F 51.8 °F 68% 29.86 in 10.0 mi Calm Calm - N/A Rain Light Rain
11:16 AM 62.6 °F 51.8 °F 68% 29.86 in 10.0 mi Calm Calm - N/A Rain Light Rain
11:36 AM 62.6 °F 53.6 °F 72% 29.86 in 10.0 mi NE 3.5 mph - N/A   Clear
11:57 AM 64.4 °F 53.6 °F 68% 29.86 in 10.0 mi Calm Calm - N/A   Clear
12:16 PM 64.4 °F 51.8 °F 64% 29.87 in 10.0 mi NW 3.5 mph - N/A   Clear
12:36 PM 66.2 °F 53.6 °F 64% 29.87 in 10.0 mi NNW 4.6 mph - N/A   Clear
12:57 PM 66.2 °F 55.4 °F 68% 29.87 in 10.0 mi NNW 5.8 mph - N/A Rain Light Rain
1:16 PM 68.0 °F 55.4 °F 64% 29.86 in 10.0 mi North 4.6 mph - N/A Rain Light Rain
1:37 PM 68.0 °F 55.4 °F 64% 29.87 in 10.0 mi NNW 6.9 mph - N/A   Scattered Clouds
1:57 PM 68.0 °F 53.6 °F 60% 29.87 in 10.0 mi NNW 4.6 mph - N/A   Mostly Cloudy
2:16 PM 68.0 °F 51.8 °F 56% 29.87 in 10.0 mi NNW 4.6 mph - 0.01 in   Mostly Cloudy
2:37 PM 68.0 °F 51.8 °F 56% 29.87 in 10.0 mi North 4.6 mph - 0.01 in   Scattered Clouds
2:57 PM 68.0 °F 51.8 °F 56% 29.88 in 10.0 mi NNW 4.6 mph - N/A   Scattered Clouds
3:16 PM 69.8 °F 53.6 °F 56% 29.88 in 10.0 mi NNW 5.8 mph - N/A   Scattered Clouds
3:37 PM 69.8 °F 53.6 °F 56% 29.88 in 10.0 mi NNW 3.5 mph - N/A   Clear
3:56 PM 69.8 °F 53.6 °F 56% 29.88 in 10.0 mi NW 5.8 mph - N/A   Clear
4:17 PM 71.6 °F 53.6 °F 53% 29.88 in 10.0 mi NNW 3.5 mph - N/A   Scattered Clouds
4:36 PM 71.6 °F 53.6 °F 53% 29.88 in 10.0 mi NNW 5.8 mph - N/A   Clear
4:57 PM 71.6 °F 53.6 °F 53% 29.88 in 10.0 mi NNW 6.9 mph - N/A   Clear
5:17 PM 71.6 °F 51.8 °F 50% 29.88 in 10.0 mi NW 9.2 mph - N/A   Scattered Clouds
5:36 PM 69.8 °F 50.0 °F 49% 29.88 in 10.0 mi NW 6.9 mph - 0.01 in   Clear
5:57 PM 69.8 °F 50.0 °F 49% 29.88 in 10.0 mi NNW 5.8 mph - N/A   Clear
6:17 PM 69.8 °F 50.0 °F 49% 29.88 in 10.0 mi NNW 5.8 mph - N/A   Clear
6:36 PM 69.8 °F 48.2 °F 46% 29.89 in 10.0 mi NNW 5.8 mph - N/A   Clear
6:56 PM 69.8 °F 48.2 °F 46% 29.89 in 10.0 mi NNW 6.9 mph - N/A   Clear
7:17 PM 69.8 °F 46.4 °F 43% 29.89 in 10.0 mi NNW 5.8 mph - N/A   Clear
7:36 PM 69.8 °F 46.4 °F 43% 29.90 in 10.0 mi NNW 5.8 mph - N/A   Clear
7:56 PM 69.8 °F 46.4 °F 43% 29.91 in 10.0 mi NNW 5.8 mph - N/A   Clear
8:17 PM 68.0 °F 46.4 °F 46% 29.91 in 10.0 mi NNW 5.8 mph - N/A   Clear
8:36 PM 68.0 °F 46.4 °F 46% 29.92 in 10.0 mi NNW 5.8 mph - N/A   Clear
8:57 PM 66.2 °F 46.4 °F 49% 29.94 in 10.0 mi NNW 3.5 mph - N/A   Clear
9:16 PM 66.2 °F 46.4 °F 49% 29.94 in 10.0 mi NNW 4.6 mph - N/A   Clear
9:37 PM 66.2 °F 46.4 °F 49% 29.96 in 10.0 mi NNW 5.8 mph - N/A   Clear
9:56 PM 64.4 °F 44.6 °F 49% 29.97 in 10.0 mi NNW 5.8 mph - N/A   Scattered Clouds
10:17 PM 64.4 °F 44.6 °F 49% 29.98 in 10.0 mi NW 4.6 mph - N/A   Scattered Clouds
10:36 PM 62.6 °F 44.6 °F 52% 29.98 in 10.0 mi NNW 3.5 mph - N/A   Clear
10:56 PM 62.6 °F 44.6 °F 52% 29.99 in 10.0 mi NW 4.6 mph - N/A   Clear
11:17 PM 60.8 °F 44.6 °F 55% 29.99 in 10.0 mi NNW 3.5 mph - N/A   Clear
11:36 PM 60.8 °F 44.6 °F 55% 30.00 in 10.0 mi Calm Calm - N/A   Clear
11:56 PM 59.0 °F 44.6 °F 59% 29.99 in 10.0 mi Calm Calm - N/A   Clear